MPEC 2004-F88 : 2004 FJ29

The following Minor Planet Electronic Circular may be linked-to from your own Web pages, but must not otherwise be redistributed electronically.


Read MPEC 2004-F87 Read MPEC 2004-F89


M.P.E.C. 2004-F88                                Issued 2004 Mar. 30, 13:21 UT

     The Minor Planet Electronic Circulars contain information on unusual
         minor planets and routine data on comets.  They are published
   on behalf of Commission 20 of the International Astronomical Union by the
          Minor Planet Center, Smithsonian Astrophysical Observatory,
                          Cambridge, MA 02138, U.S.A.

         Supported in part by the Steven and Michele Kirsch Foundation
             Prepared using the Tamkin Foundation Computer Network

                              MPC@CFA.HARVARD.EDU
          URL http://cfa-www.harvard.edu/iau/mpc.html  ISSN 1523-6714

                                   2004 FJ29

Observations:
     K04F29J* C2004 03 29.67535 11 31 00.99 -36 34 58.5                 EF088E12
     K04F29J  C2004 03 29.68562 11 30 59.71 -36 32 16.8          17.8 R EF088E12
     K04F29J  C2004 03 29.69587 11 30 58.35 -36 29 34.3          18.2 R EF088E12
     K04F29J  C2004 03 29.70611 11 30 57.05 -36 26 51.2          18.2 R EF088E12
     K04F29J 1C2004 03 29.76245611 30 50.28 -36 11 57.2          18.2 R EF088413
     K04F29J 1C2004 03 29.76499711 30 50.01 -36 11 17.2          18.0 R EF088413
     K04F29J 1C2004 03 29.77097111 30 49.36 -36 09 41.8          18.3 R EF088413
     K04F29J 1C2004 03 29.77224111 30 49.19 -36 09 21.9          18.0 R EF088413
     K04F29J 1C2004 03 29.77350811 30 49.06 -36 09 01.5          18.0 R EF088413
     K04F29J  C2004 03 30.24902 11 30 03.60 -34 05 36.1          18.1 R EF088854
     K04F29J  C2004 03 30.25415 11 30 02.98 -34 04 14.5          18.9 R EF088854
     K04F29J  C2004 03 30.25847 11 30 02.35 -34 03 01.8          18.9 R EF088854
     K04F29J  C2004 03 30.41389 11 29 47.92 -33 20 54.5          17.8 R EF088474
     K04F29J  C2004 03 30.41538 11 29 47.74 -33 20 30.8          17.7 R EF088474
     K04F29J  C2004 03 30.41689 11 29 47.56 -33 20 07.0          17.4 R EF088474
     K04F29J  C2004 03 30.41807 11 29 47.40 -33 19 48.2          17.8 R EF088474
     K04F29J 1C2004 03 30.42404611 29 48.352-33 18 22.32         18.2 R EF088413
     K04F29J 1C2004 03 30.42576011 29 48.143-33 17 55.44         18.2 R EF088413
     K04F29J 1C2004 03 30.42709511 29 47.979-33 17 34.37         18.3 R EF088413

Observer details:
413 Siding Spring.  Observer R. H. McNaught.  1.0-m f/8 reflector + CCD.
474 Mount John Observatory, Lake Tekapo.  Observer A. C. Gilmore.  Measurer
    P. M. Kilmartin.  1.0-m f/7.7 reflector + CCD.
854 Sabino Canyon Observatory, Tucson.  Observer J. E. McGaha.  0.356-m f/10.0
    Schmidt-Cassegrain + CCD.
E12 Siding Spring Survey.  Observers G. J. Garradd, S. Larson, E. Beshore,
    E. Christensen, R. Hill, S. Ko.  0.5-m Uppsala Schmidt + CCD.

Orbital elements:
2004 FJ29
Epoch 2004 Mar. 16.0 TT = JDT 2453080.5                 MPC
M  95.66676              (2000.0)            P               Q
n   1.11741974     Peri.  211.02651     +0.71411619     -0.68361462
a   0.9197261      Node   195.35461     +0.69983729     +0.69217031
e   0.3483425      Incl.   34.68805     -0.01630414     -0.23145478
P   0.88           H   21.3           G   0.15
From 19 observations 2004 Mar. 29-30.

Ephemeris:
2004 FJ29                a,e,i = 0.92, 0.35, 35                  q = 0.5993
Date    TT    R. A. (2000) Decl.     Delta      r     Elong.  Phase     V
2004 03 26    11 39.67   -51 39.0    0.145    1.096   129.8    44.3    19.0
2004 04 05    11 23.12   -09 46.3    0.147    1.137   156.5    20.6    18.4
2004 04 15    11 19.99   +17 11.0    0.215    1.171   137.3    35.5    19.8
2004 04 25    11 23.26   +28 47.6    0.310    1.198   121.6    45.7    20.9
2004 05 05    11 30.48   +33 54.8    0.411    1.218   111.0    50.6    21.7

Timothy B. Spahr             (C) Copyright 2004 MPC           M.P.E.C. 2004-F88

Read MPEC 2004-F87 Read MPEC 2004-F89


Our Web policy. Index to the CBAT/MPC/ICQ pages.

MPC